Preview of NWS' New Version of Forecast
This preview is not operational and should not be used for support decisions.
Latest weather observations around

Seattle, Seattle Boeing Field (KBFI)

Using English Units (Switch to International System of Units)
Date/ Time (PDT) Wind (mph) Vis. (mi) Weather Sky Cond. Temp (°F) Rel. Humidity Wind Chill (°F) Heat Index (°F) Pressure Precip. (in)
Air Dwpt 6 hour Altimeter (inHg) Sea level (inHg) 1 hr 3 hr 6 hr
Max Min
Oct 15 13:53 WNW 6 10 Clear CLR 61 40     46%     30.34 30.34      
Oct 15 12:53 NW 7 10 Clear CLR 59 43     55%     30.35 30.35      
Oct 15 11:53 NNW 7 10 Clear CLR 59 42     53%     30.36 30.36      
Oct 15 10:53 5 10 Clear CLR 56 41     57%     30.37 30.37      
Oct 15 09:53 3 10 Clear CLR 53 41     63%     30.38 30.37      
Oct 15 08:53 Calm 10 Clear CLR 50 41     71%     30.37 30.37      
Oct 15 07:53 SE 3 10 Clear CLR 44 39     82% 43   30.36 30.36      
Oct 15 06:53 Calm 10 Clear CLR 43 39     86%     30.36 30.36      
Oct 15 05:53 SSE 5 10 Clear CLR 44 39     82% 41   30.36 30.36      
Oct 15 04:53 Calm 10 Clear CLR 45 40     82%     30.36 30.35      
Oct 15 03:53 Calm 10 Clear CLR 46 40     79%     30.36 30.35      
Oct 15 02:53 Calm 10 Clear CLR 48 39     71%     30.36 30.36      
Oct 15 01:53 Calm 10 Clear CLR 49 38     66%     30.36 30.36      
Oct 15 00:53 Calm 10 Clear CLR 48 38     68%     30.36 30.35      
Oct 14 23:53 Calm 10 Clear CLR 49 40     71%     30.36 30.36      
Oct 14 22:53 Calm 10 Clear CLR 51 41     68%     30.35 30.35      
Oct 14 21:53 Calm 10 Clear   52 41     66%     30.35 30.35      
Oct 14 20:53 Calm 10 Clear CLR 54 40     59%     30.35 30.35      
Oct 14 19:53 NW 5 10 Clear CLR 56 40     55%     30.35 30.35      
Oct 14 18:53 NW 5 10 Clear CLR 58 38     47%     30.35 30.34      
Oct 14 17:53 NNW 5 10 Clear CLR 65 29     26%     30.34 30.34      
Oct 14 16:53 NW 7 10 Clear CLR 65 30     27%     30.34 30.34      
Oct 14 15:53 NW 7 10 Clear CLR 66 33     29%     30.35 30.35      
Oct 14 14:53 NW 8 10 Clear CLR 66 32     28%     30.36 30.35      
Oct 14 13:53 NW 6 10 Clear CLR 63 38     40%     30.37 30.36      
Oct 14 12:53 6 10 Clear CLR 63 38     40%     30.38 30.38      
Oct 14 11:53 5 10 Clear CLR 60 38     44%     30.4 30.4      
Oct 14 10:53 3 10 Clear CLR 55 37     51%     30.41 30.4      
Oct 14 09:53 3 10 Clear CLR 52 42     69%     30.41 30.4      
Oct 14 08:53 Calm 10 Clear CLR 46 43     89%     30.4 30.4      
Oct 14 07:53 Calm 10 Clear CLR 42 39     89%     30.39 30.38      
Oct 14 06:53 Calm 8 Clear CLR 42 39     89%     30.38 30.38      
Oct 14 05:53 Calm 10 Clear CLR 43 40     89%     30.37 30.37      
Oct 14 04:53 Calm 10 Clear CLR 43 39     86%     30.36 30.35      
Oct 14 03:53 Calm 10 Clear CLR 43 39     86%     30.35 30.35      
Oct 14 02:53 Calm 10 Clear CLR 45 40     82%     30.35 30.35      
Oct 14 01:53 Calm 10 Clear CLR 45 41     86%     30.34 30.34      
Oct 14 00:53 Calm 10 Clear CLR 45 39     80%     30.33 30.32      
Oct 13 23:53 Calm 10 Clear CLR 50 41     71%     30.31 30.31      
Oct 13 22:53 Calm 10 Clear CLR 49 40     71%     30.3 30.29      
Oct 13 21:53 Calm 10 Clear CLR 50 40     68%     30.29 30.28      
Oct 13 20:53 Calm 10 Clear CLR 54 38     55%     30.28 30.28      
Oct 13 19:53 Calm 10 Clear CLR 56 38     51%     30.27 30.27      
Oct 13 18:53 3 10 Clear CLR 58 38     47%     30.26 30.26      
Oct 13 17:53 N 8 10 Clear CLR 61 39     44%     30.25 30.25      
Oct 13 16:53 NW 10 10 Clear CLR 61 40     46%     30.25 30.25      
Oct 13 15:53 NNW 8 10 Clear CLR 61 41     48%     30.26 30.26      
Oct 13 14:53 NW 9 10 Clear CLR 61 43     52%     30.26 30.26      
Oct 13 13:53 NNW 8 10 Mostly Clear FEW033 61 44     54%     30.27 30.27      
Oct 13 12:53 Calm 10 Mostly Clear FEW030 58 45     62%     30.28 30.28      
Oct 13 11:53 7 10 Partly Cloudy SCT019 55 45     69%     30.29 30.29      
Oct 13 10:53 Calm 10 Mostly Cloudy BKN019 53 45     74%     30.3 30.29      
Oct 13 09:53 5 10 Cloudy OVC015 52 45     77%     30.3 30.29      
Oct 13 08:53 NE 6 10 Mostly Cloudy BKN017 52 45     77%     30.28 30.27      
Oct 13 07:53 5 10 Cloudy BKN018 OVC080 52 46     80%     30.25 30.25      
Oct 13 06:53 3 10 Cloudy SCT015 OVC020 53 46     77%     30.23 30.23      
Oct 13 02:53 3 10 Mostly Cloudy BKN025 51 47     86%     30.19 30.19      
Oct 13 02:51 ENE 3 10 Mostly Cloudy BKN025 52 46     82%     30.19        
Oct 12 21:53 Calm 10 Clear CLR 52 46     80%     30.12 30.11      
Oct 12 18:53 3 10 Mostly Clear FEW040 55 47     74%     30.09 30.09      
Oct 12 14:53 WNW 6 10 Mostly Clear FEW050 60 49     67%     30.1 30.09      
Oct 12 08:53 Calm 10 Partly Cloudy SCT120 48 44     86%     30.14 30.14      
Oct 12 05:53 SSE 3 10 Clear CLR 45 42     90% 44   30.14 30.14      
Oct 12 03:53 SSE 3 10 Clear CLR 46 43     89% 45   30.14 30.14      
Oct 11 14:53 3 10 Partly Cloudy SCT250 60 46     60%     30.12 30.12      
Oct 11 07:53 Calm 2 Fog/Mist OVC004 48 46     93%     30.14 30.14      
Oct 11 06:07 Calm 1 Patchy Fog OVC003 48 46     93%     30.12        
Oct 11 06:05 Calm 3 Patchy Fog OVC003 48 46     93%     30.12        
Oct 11 05:57 Calm 1.25 Patchy Fog OVC003 47 46     97%     30.12        
Oct 11 05:53 Calm 1 Patchy Fog OVC003 48 46     93%     30.12 30.12      
Oct 10 14:53 WNW 7 10 Mostly Cloudy SCT026 BKN100 62 49     62%     30.02 30.02      
Oct 10 10:53 Calm 6 Fog/Mist and Haze FEW008 BKN100 57 50     77%     30.05 30.05      
Oct 09 21:53 Calm 10 Clear   52 49     89%     30.02 30.01      
Oct 09 15:53 NNW 7 10 Mostly Cloudy BKN024 BKN030 58 47     67%     29.98 29.97      
Oct 09 14:53 5 10 Cloudy BKN021 OVC030 58 48     70%     29.98 29.98      
Oct 09 12:53 NNW 7 10 Cloudy BKN016 OVC025 56 48     75%     29.97 29.97      
Oct 09 09:53 NNW 9 10 Cloudy OVC017 54 48     80%     29.92 29.92      
Oct 08 20:53 Calm 2.5 Light Rain and Fog/Mist SCT005 BKN007 OVC014 55 53     93%     29.89 29.89 0    
Oct 08 17:34 Calm 5 Light Rain and Fog/Mist BKN004 BKN010 OVC015 55 53     93%     29.93   0    
Oct 08 10:53 Calm 2 Light Rain and Fog/Mist OVC007 55 52     89%     30.01 30 0   0
Oct 08 09:53 Calm 2 Light Rain and Fog/Mist OVC007 55 52     89%     30.02 30.01 0    
Oct 08 08:00 Calm 2 Fog/Mist OVC005 53 51     93%     30.04        
Oct 08 07:53 Calm 1.75 Fog/Mist OVC007 53 51     93%     30.04 30.03      
Oct 08 06:57 Calm 1.75 Fog/Mist BKN006 OVC010 53 51     93%     30.03        
Oct 08 06:53 Calm 1.75 Fog/Mist BKN004 OVC010 53 52     96%     30.03 30.03      
Oct 08 06:19 Calm 2 Fog/Mist OVC005 53 51     93%     30.04        
Oct 08 01:53 Calm 5 Fog/Mist SCT008 OVC013 53 50     89%     30.08 30.07 0 0  
Oct 07 14:53 S 7 10 Cloudy SCT021 OVC085 56 47     72%     30.16 30.16      
Oct 07 08:53 SE 9 10 Cloudy OVC090 50 42     74%     30.21 30.21      
Oct 07 04:53 SE 7 10 Mostly Clear FEW026 48 42     80% 45   30.22 30.22      
Oct 07 02:53 SSE 9 10 Clear CLR 48 42     80% 44   30.23 30.22      
Oct 06 16:53 ENE 5 10 Mostly Clear FEW035 59 45     60%     30.2 30.2      
Oct 06 12:53 E 7 10 Mostly Cloudy BKN024 BKN031 56 44     64%     30.17 30.17      
Oct 06 08:53 3 10 Cloudy FEW014 OVC025 51 46     83%     30.11 30.11      
Oct 06 01:53 N 3 10 Cloudy SCT015 OVC060 51 46     83%     29.97 29.97      
Oct 06 00:53 N 6 10 Cloudy FEW030 OVC060 51 46     83%     29.95 29.95      
Oct 05 22:53 3 10 Cloudy SCT043 OVC060 51 46     83%     29.93 29.93     0
Oct 05 13:53 Calm 10 Cloudy OVC050 53 48     83%     29.98 29.97 0 0  
Oct 05 11:53 Calm 10 Light Rain FEW030 OVC060 51 46     83%     30.03 30.03 0    
Oct 05 09:53 SSE 7 7 Light Rain SCT029 BKN040 OVC048 49 44     83% 46   30.07 30.07 0    
Oct 05 05:53 SE 5 10 Mostly Cloudy BKN050 47 41     80% 45   30.08 30.08      
Oct 05 04:53 SSE 8 10 Mostly Cloudy FEW040 BKN200 46 41     82% 42   30.08 30.08      
Oct 05 03:53 SSE 8 10 Mostly Clear FEW120 46 41     82% 42   30.1 30.09      
Oct 05 02:53 SSE 7 10 Clear CLR 45 41     86% 41   30.11 30.11      
Oct 05 01:53 SSE 7 10 Clear CLR 45 41     86% 41   30.11 30.11      
Oct 05 00:53 ESE 6 10 Clear CLR 47 42     83% 44   30.11 30.11      
Oct 04 23:53 SE 8 10 Clear CLR 47 41     80% 43   30.12 30.11      
Oct 04 22:53 SE 5 10 Clear CLR 48 40     73% 46   30.1 30.1      
Oct 04 21:53 Calm 10 Mostly Clear FEW040 51 41     68%     30.09 30.09      
Oct 04 20:53 Calm 10 Clear CLR 51 41     68%     30.09 30.09      
Oct 04 19:53 Calm 10 Mostly Clear FEW050 54 40     59%     30.08 30.08      
Oct 04 18:53 Calm 10 Mostly Clear FEW075 56 38     51%     30.06 30.06      
Oct 04 17:53 Calm 10 Mostly Clear FEW075 58 39     49%     30.06 30.06      
Oct 04 16:53 Calm 10 Mostly Clear FEW040 59 39     47%     30.04 30.04      
Oct 04 15:53 3 10 Partly Cloudy SCT040 60 39     46%     30.03 30.03      
Oct 04 14:53 Calm 10 Partly Cloudy SCT040 58 38     47%     30.03 30.03      
Oct 04 13:53 6 10 Partly Cloudy SCT030 57 39     51%     30.03 30.03      
Oct 04 12:53 Calm 10 Partly Cloudy SCT030 56 39     53%     30.03 30.02      
Oct 04 11:53 WSW 5 10 Partly Cloudy SCT020 53 41     63%     30.02 30.02      
Oct 04 10:53 Calm 10 Partly Cloudy SCT020 SCT150 52 42     69%     30.01 30.01      
Oct 04 09:53 NNW 5 10 Mostly Cloudy BKN019 BKN110 52 42     69%     30 30      
Oct 04 09:18 3 10 Mostly Cloudy BKN017 BKN110 52 43     71%     29.99        
Oct 04 08:53 3 10 Mostly Cloudy SCT015 BKN120 50 41     71%     29.99 29.99      
Oct 04 07:53 3 10 Partly Cloudy SCT120 49 41     74% 48   29.97 29.96      
Oct 04 06:53 NNW 5 10 Cloudy SCT150 OVC200 49 39     69% 47   29.95 29.95      
Oct 04 05:53 N 6 10 Partly Cloudy FEW040 SCT120 50 40     68%     29.94 29.94      
Oct 04 04:53 3 10 Clear CLR 50 40     68%     29.94 29.94      
Oct 04 03:53 Calm 10 Mostly Clear FEW075 FEW120 50 40     68%     29.94 29.93      
Oct 04 02:53 3 10 Mostly Cloudy BKN080 50 39     66%     29.94 29.93      
Oct 04 01:53 5 10 Cloudy OVC080 50 41     71%     29.94 29.94      
Oct 04 00:53 N 3 10 Cloudy OVC080 51 41     68%     29.94 29.93      
Oct 03 23:53 N 3 10 Cloudy OVC080 51 40     65%     29.93 29.93      
Sep 25 06:53 Calm 10 Clear CLR 51 48     89%     30.28 30.28      
Sep 25 05:53 Calm 10 Clear CLR 50 47     89%     30.29 30.29      
May 15 05:53 SSW 6 10 Cloudy OVC008 55 51     86%     29.92 29.92      
May 14 14:53 NNW 8 10 Clear CLR 83 51     33%   81 29.88 29.88      
May 13 17:53 NW 7 10 Clear CLR 81 47     30%   80 29.87 29.87      
May 13 11:53 Calm 10 Clear CLR 71 54     55%   70 29.95 29.94      
May 13 10:53 6 10 Clear CLR 69 53     57%     29.95 29.95      
May 13 08:53 ENE 3 10 Clear CLR 64 51     63%     29.98 29.97      
May 12 01:53 SE 6 10 Clear CLR 53 47     80%     30.19 30.19      
May 12 00:53 Calm 10 Clear CLR 57 46     67%     30.19 30.19      
May 11 17:53 3 10 Partly Cloudy SCT046 67 46     47%     30.2 30.2      
Jun 12 03:53 SSE 8 10 Mostly Cloudy BKN060 53 51     93%     30 30      
Jun 12 02:53 SSE 7 10 Mostly Cloudy BKN055 54 51     90%     30 29.99      
Jun 11 22:53 Calm 10 Clear CLR 61 49     64%     29.99 29.99      
Jun 11 14:53 NW 8 10 Clear   69 48     47%     30 29.99      
Jun 11 01:53 Calm 10 Mostly Cloudy BKN085 57 47     69%     29.97 29.97      
Jun 10 23:53 Calm 10 Cloudy OVC075 59 47     64%     29.95 29.95      
Jun 10 15:53 NNW 7 10 Clear   65 44     47%     29.85 29.85      
Jun 08 08:44 SSE 8 10 Light Rain SCT007 BKN038 OVC095 57 57     100%     29.66   0    
Jun 07 14:53 6 10 Cloudy SCT140 OVC250 79 54     42%   79 29.69 29.69      
Jun 06 00:53 3 10 Clear CLR 60 46     60%     30.04 30.04      
Jun 05 20:53 NW 6 10 Clear CLR 65 46     50%     30.05 30.05      
Jun 05 19:53 NW 6 10 Mostly Cloudy BKN200 67 47     49%     30.05 30.05      
Jun 05 15:53 WNW 9 10 Mostly Cloudy BKN250 71 45     39%   70 30.08 30.07